Location: Beutels
(47.8767°N, 9.8584°E)
Time: 00:24:51
(UTC+00:00)

Cosmos 1356 Rocket - Pass Details

Date: 19 May 2025
Orbit: 517 x 565 km, 81.2° (Epoch: 23 June)

Event Time Altitude Azimuth Distance (km) Brightness Sun altitude
Exits shadow 20:28:27 18° 156° (SSE) 1,421 4.8 -12.4°
Maximum altitude 20:31:06 40° 95° (E) 839 3.9 -12.6°
Drops below altitude 10° 20:34:58 10° 25° (NNE) 1,861 6.4 -13.1°
Sets 20:37:13 0° 18° (NNE) 2,756 7.4 -13.3°
